Time,TemperatureF,DewpointF,PressureIn,WindDirection,WindDirectionDegrees,WindSpeedMPH,WindSpeedGustMPH,Humidity,HourlyPrecipIn,Conditions,Clouds,dailyrainin,SoftwareType,DateUTC
2013-07-16 07:30:00,74.8,74.8,30.35,North,0,0.0,0.0,100,0.00,,---,0.40,VWS V14.00,2013-07-16 11:30:00,
2013-07-16 07:44:00,75.2,75.2,30.35,WNW,282,0.0,0.0,100,0.00,,---,0.40,VWS V14.00,2013-07-16 11:44:00,
2013-07-16 07:45:00,75.3,75.3,30.35,WNW,283,0.0,0.0,100,0.00,,---,0.40,VWS V14.00,2013-07-16 11:45:00,
2013-07-16 07:50:00,75.5,75.5,30.35,WNW,283,0.0,0.0,100,0.00,,---,0.40,VWS V14.00,2013-07-16 11:50:00,
2013-07-16 07:51:00,75.5,75.5,30.35,WNW,283,0.0,0.0,100,0.00,,---,0.40,VWS V14.00,2013-07-16 11:51:00,
2013-07-16 07:57:00,75.6,75.6,30.35,WNW,282,0.0,0.0,100,0.00,,---,0.40,VWS V14.00,2013-07-16 11:57:00,
2013-07-16 08:02:00,75.7,75.7,30.36,WNW,282,0.0,0.0,100,0.00,,---,0.40,VWS V14.00,2013-07-16 12:02:00,
2013-07-16 08:04:00,75.8,75.8,30.36,WNW,282,0.0,0.0,100,0.00,,---,0.40,VWS V14.00,2013-07-16 12:04:00,
2013-07-16 08:09:00,75.8,75.8,30.36,WNW,283,0.0,0.0,100,0.00,,---,0.40,VWS V14.00,2013-07-16 12:09:00,
2013-07-16 08:14:00,75.9,75.9,30.36,WNW,282,0.0,0.0,100,0.00,,---,0.40,VWS V14.00,2013-07-16 12:14:00,
2013-07-16 08:19:00,76.0,76.0,30.36,WNW,283,0.0,0.0,100,0.00,,---,0.40,VWS V14.00,2013-07-16 12:19:00,
2013-07-16 08:25:00,76.1,76.1,30.36,WNW,283,0.0,0.0,100,0.00,,---,0.40,VWS V14.00,2013-07-16 12:25:00,
2013-07-16 08:30:00,76.2,76.2,30.36,WNW,283,0.0,0.0,100,0.00,,---,0.40,VWS V14.00,2013-07-16 12:30:00,
2013-07-16 08:35:00,76.3,76.3,30.37,WNW,282,0.0,0.0,100,0.00,,---,0.40,VWS V14.00,2013-07-16 12:35:00,
2013-07-16 08:40:00,76.4,76.4,30.37,WNW,282,0.0,0.0,100,0.00,,---,0.40,VWS V14.00,2013-07-16 12:40:00,
2013-07-16 08:45:00,76.6,76.6,30.37,WNW,282,0.0,0.0,100,0.00,,---,0.40,VWS V14.00,2013-07-16 12:45:00,
2013-07-16 08:50:00,76.8,76.8,30.37,WNW,282,0.0,0.0,100,0.00,,---,0.40,VWS V14.00,2013-07-16 12:50:00,
2013-07-16 08:56:00,77.0,77.0,30.37,WNW,283,0.0,0.0,100,0.00,,---,0.40,VWS V14.00,2013-07-16 12:56:00,
2013-07-16 09:01:00,77.2,77.2,30.37,WNW,282,0.0,0.0,100,0.00,,---,0.40,VWS V14.00,2013-07-16 13:01:00,
2013-07-16 09:06:00,77.8,77.8,30.37,WNW,283,0.0,0.0,100,0.00,,---,0.40,VWS V14.00,2013-07-16 13:06:00,
2013-07-16 09:11:00,78.0,78.0,30.37,WNW,282,0.0,0.0,100,0.00,,---,0.40,VWS V14.00,2013-07-16 13:11:00,
2013-07-16 09:16:00,77.8,77.8,30.36,WNW,283,0.0,0.0,100,0.00,,---,0.40,VWS V14.00,2013-07-16 13:16:00,
2013-07-16 09:22:00,77.6,77.6,30.37,WNW,282,0.0,0.0,100,0.00,,---,0.40,VWS V14.00,2013-07-16 13:22:00,
2013-07-16 09:27:00,78.2,78.2,30.37,WNW,282,0.0,0.0,100,0.00,,---,0.40,VWS V14.00,2013-07-16 13:27:00,
2013-07-16 09:32:00,78.3,78.3,30.37,WNW,282,0.0,0.0,100,0.00,,---,0.40,VWS V14.00,2013-07-16 13:32:00,
2013-07-16 09:37:00,78.2,78.2,30.37,WNW,282,0.0,0.0,100,0.00,,---,0.40,VWS V14.00,2013-07-16 13:37:00,
2013-07-16 09:42:00,78.2,78.2,30.37,WNW,282,0.0,0.0,100,0.00,,---,0.40,VWS V14.00,2013-07-16 13:42:00,
2013-07-16 09:48:00,78.9,78.9,30.37,WNW,282,0.0,0.0,100,0.00,,---,0.40,VWS V14.00,2013-07-16 13:48:00,
2013-07-16 09:53:00,79.5,79.5,30.37,WNW,283,0.0,0.0,100,0.00,,---,0.40,VWS V14.00,2013-07-16 13:53:00,
2013-07-16 09:58:00,79.9,79.9,30.37,WNW,283,0.0,0.0,100,0.00,,---,0.40,VWS V14.00,2013-07-16 13:58:00,
2013-07-16 10:03:00,79.8,79.8,30.37,WNW,284,0.0,0.0,100,0.00,,---,0.40,VWS V14.00,2013-07-16 14:03:00,
2013-07-16 10:08:00,80.0,80.0,30.37,WNW,284,0.0,0.0,100,0.00,,---,0.40,VWS V14.00,2013-07-16 14:08:00,
2013-07-16 10:14:00,80.1,80.1,30.37,NE,42,0.0,3.0,100,0.00,,---,0.40,VWS V14.00,2013-07-16 14:14:00,
2013-07-16 10:19:00,80.1,80.1,30.36,NE,43,0.0,0.0,100,0.00,,---,0.40,VWS V14.00,2013-07-16 14:19:00,
2013-07-16 10:24:00,80.6,80.6,30.36,NE,43,0.0,0.0,100,0.00,,---,0.40,VWS V14.00,2013-07-16 14:24:00,
2013-07-16 10:29:00,80.8,80.8,30.36,NE,34,0.0,0.0,100,0.00,,---,0.40,VWS V14.00,2013-07-16 14:29:00,
2013-07-16 10:34:00,80.8,80.8,30.36,NE,35,0.0,0.0,100,0.00,,---,0.40,VWS V14.00,2013-07-16 14:34:00,
2013-07-16 10:39:00,81.2,81.2,30.36,NNE,27,0.0,0.0,100,0.00,,---,0.40,VWS V14.00,2013-07-16 14:39:00,
2013-07-16 10:45:00,81.5,81.5,30.36,NNE,27,0.0,0.0,100,0.00,,---,0.40,VWS V14.00,2013-07-16 14:45:00,
2013-07-16 10:50:00,82.0,82.0,30.36,NNE,27,0.0,0.0,100,0.00,,---,0.40,VWS V14.00,2013-07-16 14:50:00,
2013-07-16 10:55:00,82.3,82.3,30.36,NNE,27,0.0,0.0,100,0.00,,---,0.40,VWS V14.00,2013-07-16 14:55:00,
2013-07-16 11:00:00,83.1,83.1,30.36,NNE,27,0.0,0.0,100,0.00,,---,0.40,VWS V14.00,2013-07-16 15:00:00,
2013-07-16 11:05:00,83.6,83.6,30.36,NNE,27,0.0,0.0,100,0.00,,---,0.40,VWS V14.00,2013-07-16 15:05:00,
2013-07-16 11:11:00,84.1,84.1,30.36,NNE,26,0.0,0.0,100,0.00,,---,0.40,VWS V14.00,2013-07-16 15:11:00,
2013-07-16 11:16:00,84.2,84.2,30.36,NNE,26,0.0,0.0,100,0.00,,---,0.40,VWS V14.00,2013-07-16 15:16:00,
2013-07-16 11:21:00,84.4,84.4,30.36,NNE,18,0.0,0.0,100,0.00,,---,0.40,VWS V14.00,2013-07-16 15:21:00,
2013-07-16 11:26:00,84.5,83.6,30.36,NNE,18,0.0,0.0,97,0.00,,---,0.40,VWS V14.00,2013-07-16 15:26:00,
2013-07-16 11:31:00,84.7,83.4,30.36,NNE,18,0.0,0.0,96,0.00,,---,0.40,VWS V14.00,2013-07-16 15:31:00,
2013-07-16 11:36:00,85.1,80.1,30.36,NNE,18,0.0,0.0,85,0.00,,---,0.40,VWS V14.00,2013-07-16 15:36:00,
2013-07-16 11:42:00,85.5,66.4,30.36,NNE,18,0.0,0.0,53,0.00,,---,0.40,VWS V14.00,2013-07-16 15:42:00,
2013-07-16 11:47:00,85.5,85.5,30.35,NNW,331,0.0,0.0,100,0.00,,---,0.40,VWS V14.00,2013-07-16 15:47:00,
2013-07-16 11:52:00,85.6,85.6,30.36,NNW,335,0.0,1.0,100,0.00,,---,0.40,VWS V14.00,2013-07-16 15:52:00,
2013-07-16 11:57:00,85.8,73.1,30.35,NNE,20,0.0,0.0,66,0.00,,---,0.40,VWS V14.00,2013-07-16 15:57:00,
2013-07-16 12:02:00,86.6,62.1,30.35,NNE,13,0.0,0.0,44,0.00,,---,0.40,VWS V14.00,2013-07-16 16:02:00,
2013-07-16 12:07:00,86.5,25.8,30.35,NNE,13,0.0,0.0,11,0.00,,---,0.40,VWS V14.00,2013-07-16 16:07:00,
2013-07-16 12:13:00,86.5,21.0,30.35,NNE,13,0.0,0.0,9,0.00,,---,0.40,VWS V14.00,2013-07-16 16:13:00,
2013-07-16 12:18:00,86.6,0.0,30.35,NNE,13,0.0,0.0,100,0.00,,---,0.40,VWS V14.00,2013-07-16 16:18:00,
2013-07-16 12:23:00,86.3,86.3,30.35,NNE,13,0.0,0.0,100,0.00,,---,0.40,VWS V14.00,2013-07-16 16:23:00,
2013-07-16 12:28:00,86.9,86.9,30.35,SE,144,0.0,0.0,100,0.00,,---,0.40,VWS V14.00,2013-07-16 16:28:00,
2013-07-16 12:33:00,88.1,88.1,30.35,SE,132,1.0,1.0,100,0.00,,---,0.40,VWS V14.00,2013-07-16 16:33:00,
2013-07-16 12:38:00,88.1,88.1,30.35,ESE,119,0.0,0.0,100,0.00,,---,0.40,VWS V14.00,2013-07-16 16:38:00,
2013-07-16 12:44:00,88.3,88.3,30.35,SE,134,0.0,0.0,100,0.00,,---,0.40,VWS V14.00,2013-07-16 16:44:00,
2013-07-16 12:49:00,88.7,88.7,30.35,SE,144,0.0,1.0,100,0.00,,---,0.40,VWS V14.00,2013-07-16 16:49:00,
2013-07-16 12:54:00,88.1,88.1,30.35,SSW,209,0.0,0.0,100,0.00,,---,0.40,VWS V14.00,2013-07-16 16:54:00,
2013-07-16 12:59:00,87.5,87.5,30.35,SSW,209,0.0,0.0,100,0.00,,---,0.40,VWS V14.00,2013-07-16 16:59:00,
2013-07-16 13:04:00,87.1,87.1,30.35,South,185,0.0,0.0,100,0.00,,---,0.40,VWS V14.00,2013-07-16 17:04:00,
2013-07-16 13:10:00,86.9,86.9,30.35,South,185,0.0,0.0,100,0.00,,---,0.40,VWS V14.00,2013-07-16 17:10:00,
2013-07-16 13:15:00,86.5,86.5,30.35,SSW,204,0.0,0.0,100,0.00,,---,0.40,VWS V14.00,2013-07-16 17:15:00,
2013-07-16 13:20:00,86.3,86.3,30.35,SSW,204,0.0,0.0,100,0.00,,---,0.40,VWS V14.00,2013-07-16 17:20:00,
2013-07-16 13:25:00,85.9,85.9,30.35,SSW,204,0.0,0.0,100,0.00,,---,0.40,VWS V14.00,2013-07-16 17:25:00,
2013-07-16 13:30:00,85.5,85.5,30.34,SSW,204,0.0,0.0,100,0.00,,---,0.40,VWS V14.00,2013-07-16 17:30:00,
2013-07-16 13:36:00,84.9,28.6,30.35,SSW,204,0.0,0.0,13,0.00,,---,0.40,VWS V14.00,2013-07-16 17:36:00,
2013-07-16 13:41:00,85.1,39.6,30.35,SSW,204,0.0,0.0,20,0.00,,---,0.40,VWS V14.00,2013-07-16 17:41:00,
2013-07-16 13:46:00,85.5,41.2,30.34,SSW,204,0.0,0.0,21,0.00,,---,0.40,VWS V14.00,2013-07-16 17:46:00,
2013-07-16 13:51:00,85.4,34.2,30.34,SSW,204,0.0,0.0,16,0.00,,---,0.40,VWS V14.00,2013-07-16 17:51:00,
2013-07-16 13:56:00,85.2,35.5,30.34,SSW,204,0.0,0.0,17,0.00,,---,0.40,VWS V14.00,2013-07-16 17:56:00,
2013-07-16 14:02:00,85.0,0.0,30.35,SE,138,1.0,2.0,100,0.00,,---,0.40,VWS V14.00,2013-07-16 18:02:00,
2013-07-16 14:07:00,85.5,85.5,30.34,SW,226,0.0,0.0,100,0.00,,---,0.40,VWS V14.00,2013-07-16 18:07:00,
2013-07-16 14:12:00,86.0,86.0,30.34,SE,145,0.0,0.0,100,0.00,,---,0.40,VWS V14.00,2013-07-16 18:12:00,
2013-07-16 14:17:00,86.2,86.2,30.34,SE,140,0.0,0.0,100,0.00,,---,0.40,VWS V14.00,2013-07-16 18:17:00,
2013-07-16 14:22:00,86.6,86.6,30.33,SSW,198,0.0,0.0,100,0.00,,---,0.40,VWS V14.00,2013-07-16 18:22:00,
2013-07-16 14:28:00,86.9,86.9,30.34,WSW,245,0.0,0.0,100,0.00,,---,0.40,VWS V14.00,2013-07-16 18:28:00,
2013-07-16 14:33:00,87.6,87.6,30.34,WSW,245,0.0,0.0,100,0.00,,---,0.40,VWS V14.00,2013-07-16 18:33:00,
2013-07-16 14:38:00,87.7,87.7,30.34,SW,233,0.0,0.0,100,0.00,,---,0.40,VWS V14.00,2013-07-16 18:38:00,
2013-07-16 14:43:00,87.6,87.6,30.33,SSW,208,0.0,0.0,100,0.00,,---,0.40,VWS V14.00,2013-07-16 18:43:00,
2013-07-16 14:48:00,87.7,87.7,30.33,SW,214,0.0,1.0,100,0.00,,---,0.40,VWS V14.00,2013-07-16 18:48:00,
2013-07-16 14:53:00,87.6,87.6,30.33,SSE,155,2.0,2.0,100,0.00,,---,0.40,VWS V14.00,2013-07-16 18:53:00,
2013-07-16 14:58:00,87.4,87.4,30.33,SE,127,0.0,0.0,100,0.00,,---,0.40,VWS V14.00,2013-07-16 18:58:00,
2013-07-16 15:03:00,87.1,87.1,30.33,SW,230,0.0,0.0,100,0.00,,---,0.40,VWS V14.00,2013-07-16 19:03:00,
2013-07-16 15:09:00,87.1,87.1,30.33,SW,226,0.0,0.0,100,0.00,,---,0.40,VWS V14.00,2013-07-16 19:09:00,
2013-07-16 15:14:00,87.2,87.2,30.33,SE,131,0.0,0.0,100,0.00,,---,0.40,VWS V14.00,2013-07-16 19:14:00,
2013-07-16 15:19:00,87.4,87.4,30.33,SE,132,0.0,0.0,100,0.00,,---,0.40,VWS V14.00,2013-07-16 19:19:00,
2013-07-16 15:24:00,87.3,87.3,30.33,SSE,166,0.0,1.0,100,0.00,,---,0.40,VWS V14.00,2013-07-16 19:24:00,
2013-07-16 15:29:00,87.2,87.2,30.32,WSW,249,0.0,0.0,100,0.00,,---,0.40,VWS V14.00,2013-07-16 19:29:00,
2013-07-16 15:34:00,86.7,86.7,30.32,South,186,2.0,2.0,100,0.00,,---,0.40,VWS V14.00,2013-07-16 19:34:00,
2013-07-16 15:39:00,86.4,86.4,30.32,SSE,147,1.0,1.0,100,0.00,,---,0.40,VWS V14.00,2013-07-16 19:39:00,
2013-07-16 15:44:00,86.2,86.2,30.32,South,169,0.0,0.0,100,0.00,,---,0.40,VWS V14.00,2013-07-16 19:44:00,
2013-07-16 15:49:00,86.3,86.3,30.33,South,169,0.0,0.0,100,0.00,,---,0.40,VWS V14.00,2013-07-16 19:49:00,
2013-07-16 15:54:00,86.5,86.5,30.33,SW,226,2.0,3.0,100,0.00,,---,0.40,VWS V14.00,2013-07-16 19:54:00,
2013-07-16 16:00:00,86.6,86.6,30.32,SW,236,0.0,0.0,100,0.00,,---,0.40,VWS V14.00,2013-07-16 20:00:00,
2013-07-16 16:05:00,86.6,86.6,30.32,SE,132,1.0,3.0,100,0.00,,---,0.40,VWS V14.00,2013-07-16 20:05:00,
2013-07-16 16:10:00,86.6,86.6,30.32,SE,139,0.0,1.0,100,0.00,,---,0.40,VWS V14.00,2013-07-16 20:10:00,
2013-07-16 16:15:00,86.7,86.7,30.32,SW,228,0.0,0.0,100,0.00,,---,0.40,VWS V14.00,2013-07-16 20:15:00,
2013-07-16 16:20:00,86.8,86.8,30.32,SW,227,0.0,0.0,100,0.00,,---,0.40,VWS V14.00,2013-07-16 20:20:00,
2013-07-16 16:25:00,86.9,86.9,30.32,SSE,163,0.0,0.0,100,0.00,,---,0.40,VWS V14.00,2013-07-16 20:25:00,
2013-07-16 16:30:00,87.0,87.0,30.32,SSE,163,1.0,1.0,100,0.00,,---,0.40,VWS V14.00,2013-07-16 20:30:00,
2013-07-16 16:36:00,87.0,87.0,30.32,SSE,163,0.0,0.0,100,0.00,,---,0.40,VWS V14.00,2013-07-16 20:36:00,
2013-07-16 16:41:00,86.8,86.8,30.32,SSE,161,0.0,0.0,100,0.00,,---,0.40,VWS V14.00,2013-07-16 20:41:00,
2013-07-16 16:46:00,86.6,86.6,30.32,SSE,161,0.0,0.0,100,0.00,,---,0.40,VWS V14.00,2013-07-16 20:46:00,
2013-07-16 16:51:00,86.4,86.4,30.32,SSE,161,0.0,0.0,100,0.00,,---,0.40,VWS V14.00,2013-07-16 20:51:00,
2013-07-16 16:56:00,86.2,86.2,30.32,SSE,161,0.0,0.0,100,0.00,,---,0.40,VWS V14.00,2013-07-16 20:56:00,
2013-07-16 17:01:00,86.2,86.2,30.31,SSE,161,0.0,0.0,100,0.00,,---,0.40,VWS V14.00,2013-07-16 21:01:00,
2013-07-16 17:06:00,86.3,86.3,30.31,SSE,161,0.0,0.0,100,0.00,,---,0.40,VWS V14.00,2013-07-16 21:06:00,
2013-07-16 17:12:00,86.4,86.4,30.31,SE,145,1.0,1.0,100,0.00,,---,0.40,VWS V14.00,2013-07-16 21:12:00,
2013-07-16 17:17:00,86.7,86.7,30.31,SE,140,0.0,0.0,100,0.00,,---,0.40,VWS V14.00,2013-07-16 21:17:00,
2013-07-16 17:22:00,86.7,86.7,30.31,SE,140,0.0,0.0,100,0.00,,---,0.40,VWS V14.00,2013-07-16 21:22:00,
2013-07-16 17:27:00,86.7,86.7,30.31,SE,140,0.0,0.0,100,0.00,,---,0.40,VWS V14.00,2013-07-16 21:27:00,
2013-07-16 17:32:00,87.0,87.0,30.31,SE,140,0.0,0.0,100,0.00,,---,0.40,VWS V14.00,2013-07-16 21:32:00,
2013-07-16 17:37:00,87.0,87.0,30.30,SSW,211,0.0,0.0,100,0.00,,---,0.40,VWS V14.00,2013-07-16 21:37:00,
2013-07-16 17:42:00,87.3,87.3,30.31,SSW,211,0.0,0.0,100,0.00,,---,0.40,VWS V14.00,2013-07-16 21:42:00,
2013-07-16 17:47:00,87.4,87.4,30.30,SSW,211,0.0,0.0,100,0.00,,---,0.40,VWS V14.00,2013-07-16 21:47:00,
2013-07-16 17:53:00,87.9,87.9,30.31,SSE,155,3.0,4.0,100,0.00,,---,0.40,VWS V14.00,2013-07-16 21:53:00,
2013-07-16 17:58:00,87.5,87.5,30.30,SSE,165,0.0,0.0,100,0.00,,---,0.40,VWS V14.00,2013-07-16 21:58:00,
2013-07-16 18:03:00,87.5,87.5,30.30,SSE,167,0.0,0.0,100,0.00,,---,0.40,VWS V14.00,2013-07-16 22:03:00,
2013-07-16 18:08:00,87.4,87.4,30.30,SW,215,1.0,3.0,100,0.00,,---,0.40,VWS V14.00,2013-07-16 22:08:00,
2013-07-16 18:13:00,87.6,87.6,30.30,SE,131,0.0,1.0,100,0.00,,---,0.40,VWS V14.00,2013-07-16 22:13:00,
2013-07-16 18:18:00,88.0,88.0,30.30,SE,137,0.0,0.0,100,0.00,,---,0.40,VWS V14.00,2013-07-16 22:18:00,
2013-07-16 18:23:00,88.2,88.2,30.30,SE,141,0.0,0.0,100,0.00,,---,0.40,VWS V14.00,2013-07-16 22:23:00,
2013-07-16 18:29:00,88.1,88.1,30.30,SE,140,2.0,3.0,100,0.00,,---,0.40,VWS V14.00,2013-07-16 22:29:00,
2013-07-16 18:34:00,88.0,88.0,30.30,SE,135,0.0,2.0,100,0.00,,---,0.40,VWS V14.00,2013-07-16 22:34:00,
2013-07-16 18:39:00,87.8,87.8,30.30,SE,129,1.0,2.0,100,0.00,,---,0.40,VWS V14.00,2013-07-16 22:39:00,
2013-07-16 18:44:00,87.7,87.7,30.30,SSW,204,0.0,0.0,100,0.00,,---,0.40,VWS V14.00,2013-07-16 22:44:00,
2013-07-16 18:49:00,87.9,87.9,30.30,SE,137,0.0,0.0,100,0.00,,---,0.40,VWS V14.00,2013-07-16 22:49:00,
2013-07-16 18:54:00,87.8,87.8,30.30,SW,227,0.0,0.0,100,0.00,,---,0.40,VWS V14.00,2013-07-16 22:54:00,
2013-07-16 18:59:00,87.9,87.9,30.30,SSE,167,0.0,1.0,100,0.00,,---,0.40,VWS V14.00,2013-07-16 22:59:00,
2013-07-16 19:04:00,87.7,87.7,30.30,SSE,148,0.0,0.0,100,0.00,,---,0.40,VWS V14.00,2013-07-16 23:04:00,
2013-07-16 19:10:00,87.9,87.9,30.30,SSE,148,0.0,0.0,100,0.00,,---,0.40,VWS V14.00,2013-07-16 23:10:00,
2013-07-16 19:15:00,87.9,87.9,30.30,SSE,148,0.0,0.0,100,0.00,,---,0.40,VWS V14.00,2013-07-16 23:15:00,
2013-07-16 19:20:00,87.5,87.5,30.30,SSE,148,0.0,0.0,100,0.00,,---,0.40,VWS V14.00,2013-07-16 23:20:00,
2013-07-16 19:25:00,87.2,87.2,30.30,SSE,148,0.0,0.0,100,0.00,,---,0.40,VWS V14.00,2013-07-16 23:25:00,
2013-07-16 19:30:00,87.1,87.1,30.30,SSE,149,0.0,0.0,100,0.00,,---,0.40,VWS V14.00,2013-07-16 23:30:00,
2013-07-16 19:35:00,86.9,86.9,30.30,SSE,149,0.0,0.0,100,0.00,,---,0.40,VWS V14.00,2013-07-16 23:35:00,
2013-07-16 19:40:00,86.4,86.4,30.31,SSE,148,0.0,0.0,100,0.00,,---,0.40,VWS V14.00,2013-07-16 23:40:00,
2013-07-16 19:46:00,86.0,86.0,30.31,SSE,148,0.0,0.0,100,0.00,,---,0.40,VWS V14.00,2013-07-16 23:46:00,
2013-07-16 19:51:00,85.6,85.6,30.31,SSE,149,0.0,0.0,100,0.00,,---,0.40,VWS V14.00,2013-07-16 23:51:00,
2013-07-16 19:56:00,85.3,85.3,30.31,SSE,148,0.0,0.0,100,0.00,,---,0.40,VWS V14.00,2013-07-16 23:56:00,
2013-07-16 20:01:00,85.1,85.1,30.31,SSE,149,0.0,0.0,100,0.00,,---,0.40,VWS V14.00,2013-07-17 00:01:00,
2013-07-16 20:06:00,84.8,84.8,30.31,SSE,148,0.0,0.0,100,0.00,,---,0.40,VWS V14.00,2013-07-17 00:06:00,
2013-07-16 20:11:00,84.6,84.6,30.31,SSE,149,0.0,0.0,100,0.00,,---,0.40,VWS V14.00,2013-07-17 00:11:00,
2013-07-16 20:16:00,84.3,84.3,30.31,SSE,148,0.0,0.0,100,0.00,,---,0.40,VWS V14.00,2013-07-17 00:16:00,
2013-07-16 20:21:00,84.1,84.1,30.31,SSE,148,0.0,0.0,100,0.00,,---,0.40,VWS V14.00,2013-07-17 00:21:00,
2013-07-16 20:27:00,83.8,83.8,30.31,SSE,148,0.0,0.0,100,0.00,,---,0.40,VWS V14.00,2013-07-17 00:27:00,
2013-07-16 20:32:00,83.5,83.5,30.31,SSE,149,0.0,0.0,100,0.00,,---,0.40,VWS V14.00,2013-07-17 00:32:00,
2013-07-16 20:37:00,83.1,83.1,30.31,SSE,148,0.0,0.0,100,0.00,,---,0.40,VWS V14.00,2013-07-17 00:37:00,
2013-07-16 20:42:00,82.7,82.7,30.31,SSE,148,0.0,0.0,100,0.00,,---,0.40,VWS V14.00,2013-07-17 00:42:00,
2013-07-16 20:47:00,82.6,82.6,30.31,SSE,149,0.0,0.0,100,0.00,,---,0.40,VWS V14.00,2013-07-17 00:47:00,
2013-07-16 20:52:00,82.5,82.5,30.31,SSE,148,0.0,0.0,100,0.00,,---,0.40,VWS V14.00,2013-07-17 00:52:00,
2013-07-16 20:57:00,82.3,82.3,30.31,SSE,148,0.0,0.0,100,0.00,,---,0.40,VWS V14.00,2013-07-17 00:57:00,
2013-07-16 21:02:00,82.0,82.0,30.31,SSE,148,0.0,0.0,100,0.00,,---,0.40,VWS V14.00,2013-07-17 01:02:00,
2013-07-16 21:07:00,81.6,81.6,30.31,SSE,148,0.0,0.0,100,0.00,,---,0.40,VWS V14.00,2013-07-17 01:07:00,
2013-07-16 21:13:00,81.2,81.2,30.31,SSE,148,0.0,0.0,100,0.00,,---,0.40,VWS V14.00,2013-07-17 01:13:00,
2013-07-16 21:18:00,81.0,81.0,30.31,SSE,149,0.0,0.0,100,0.00,,---,0.40,VWS V14.00,2013-07-17 01:18:00,
2013-07-16 21:23:00,80.8,3.6,30.31,SSE,149,0.0,0.0,5,0.00,,---,0.40,VWS V14.00,2013-07-17 01:23:00,
2013-07-16 21:28:00,80.6,10.9,30.31,SSE,148,0.0,0.0,7,0.00,,---,0.40,VWS V14.00,2013-07-17 01:28:00,
2013-07-16 21:33:00,80.5,27.0,30.31,SSE,148,0.0,0.0,14,0.00,,---,0.40,VWS V14.00,2013-07-17 01:33:00,
2013-07-16 21:38:00,80.4,34.4,30.31,SSE,149,0.0,0.0,19,0.00,,---,0.40,VWS V14.00,2013-07-17 01:38:00,
2013-07-16 21:43:00,80.1,39.0,30.31,SSE,149,0.0,0.0,23,0.00,,---,0.40,VWS V14.00,2013-07-17 01:43:00,
2013-07-16 21:49:00,79.9,43.0,30.31,SSE,149,0.0,0.0,27,0.00,,---,0.40,VWS V14.00,2013-07-17 01:49:00,
2013-07-16 21:54:00,79.8,47.3,30.31,SSE,148,0.0,0.0,32,0.00,,---,0.40,VWS V14.00,2013-07-17 01:54:00,
2013-07-16 21:59:00,79.5,51.0,30.31,SSE,148,0.0,0.0,37,0.00,,---,0.40,VWS V14.00,2013-07-17 01:59:00,
2013-07-16 22:04:00,79.2,54.8,30.31,SSE,149,0.0,0.0,43,0.00,,---,0.40,VWS V14.00,2013-07-17 02:04:00,
2013-07-16 22:09:00,78.9,59.8,30.31,SSE,148,0.0,0.0,52,0.00,,---,0.40,VWS V14.00,2013-07-17 02:09:00,
2013-07-16 22:14:00,78.7,64.1,30.31,SSE,148,0.0,0.0,61,0.00,,---,0.40,VWS V14.00,2013-07-17 02:14:00,
2013-07-16 22:19:00,78.5,67.5,30.31,SSE,148,0.0,0.0,69,0.00,,---,0.40,VWS V14.00,2013-07-17 02:19:00,
2013-07-16 22:25:00,78.3,70.1,30.31,SSE,148,0.0,0.0,76,0.00,,---,0.40,VWS V14.00,2013-07-17 02:25:00,
2013-07-16 22:30:00,78.1,74.3,30.31,SSE,148,0.0,0.0,88,0.00,,---,0.40,VWS V14.00,2013-07-17 02:30:00,
2013-07-16 22:35:00,77.9,76.7,30.32,SSE,149,0.0,0.0,96,0.00,,---,0.40,VWS V14.00,2013-07-17 02:35:00,
2013-07-16 22:40:00,77.8,77.8,30.32,SSE,149,0.0,0.0,100,0.00,,---,0.40,VWS V14.00,2013-07-17 02:40:00,
2013-07-16 22:45:00,77.5,77.5,30.31,SSE,148,0.0,0.0,100,0.00,,---,0.40,VWS V14.00,2013-07-17 02:45:00,
2013-07-16 22:50:00,77.3,77.3,30.31,SSE,148,0.0,0.0,100,0.00,,---,0.40,VWS V14.00,2013-07-17 02:50:00,
2013-07-16 22:55:00,77.1,77.1,30.31,SSE,148,0.0,0.0,100,0.00,,---,0.40,VWS V14.00,2013-07-17 02:55:00,
2013-07-16 23:00:00,77.0,77.0,30.31,SSE,148,0.0,0.0,100,0.00,,---,0.40,VWS V14.00,2013-07-17 03:00:00,
2013-07-16 23:06:00,76.9,76.9,30.31,SSE,148,0.0,0.0,100,0.00,,---,0.40,VWS V14.00,2013-07-17 03:06:00,
2013-07-16 23:11:00,76.7,76.7,30.31,SSE,148,0.0,0.0,100,0.00,,---,0.40,VWS V14.00,2013-07-17 03:11:00,
2013-07-16 23:16:00,76.6,76.6,30.31,SSE,149,0.0,0.0,100,0.00,,---,0.40,VWS V14.00,2013-07-17 03:16:00,
2013-07-16 23:21:00,76.4,76.4,30.31,SSE,148,0.0,0.0,100,0.00,,---,0.40,VWS V14.00,2013-07-17 03:21:00,
2013-07-16 23:26:00,76.3,76.3,30.31,SSE,149,0.0,0.0,100,0.00,,---,0.40,VWS V14.00,2013-07-17 03:26:00,
2013-07-16 23:31:00,76.1,76.1,30.31,SSE,148,0.0,0.0,100,0.00,,---,0.40,VWS V14.00,2013-07-17 03:31:00,
2013-07-16 23:37:00,76.0,76.0,30.31,SSE,148,0.0,0.0,100,0.00,,---,0.40,VWS V14.00,2013-07-17 03:37:00,
2013-07-16 23:42:00,76.0,76.0,30.31,SSE,148,0.0,0.0,100,0.00,,---,0.40,VWS V14.00,2013-07-17 03:42:00,